AO-07 1 07530U 74089B 26161.28179581 -.00000033 00000-0 84573-4 0 9998 2 07530 101.9901 174.4563 0012501 142.9960 284.8697 12.53697951359658 UO-11 1 14781U 84021B 26161.17371193 .00001160 00000-0 12370-3 0 9998 2 14781 97.8055 126.8269 0006981 196.0557 164.0441 14.90765931256084 LO-19 1 20442U 90005G 26161.55393097 .00000100 00000-0 52314-4 0 9993 2 20442 98.8852 183.1766 0010775 221.6340 138.4024 14.34121162901449 AO-27 1 22825U 93061C 26161.42702728 .00000074 00000-0 45162-4 0 9999 2 22825 98.6881 228.8428 0009436 117.2772 242.9373 14.30940455706035 FO-29 1 24278U 96046B 26161.58304484 .00000006 00000-0 38837-4 0 9999 2 24278 98.5246 11.3599 0350807 113.5240 250.3166 13.53273851472279 GO-32 1 25397U 98043D 26161.53178858 .00000053 00000-0 43187-4 0 9996 2 25397 99.0066 154.1227 0000675 179.7383 180.3795 14.24427136450383 ISS 1 25544U 98067A 26161.41633915 .00005345 00000-0 10452-3 0 9990 2 25544 51.6361 333.6061 0005881 172.3680 187.7399 15.49162374570700 NO-44 1 26931U 01043C 26161.59384368 .00000066 00000-0 55711-4 0 9996 2 26931 67.0510 261.3249 0006104 264.3333 95.7073 14.31953756289503 SO-50 1 27607U 02058C 26161.41203398 .00000888 00000-0 12206-3 0 9991 2 27607 64.5505 149.9474 0075400 263.7335 95.5179 14.83031935263455 CO-55 1 27844U 03031E 26161.29335645 .00000255 00000-0 12935-3 0 9990 2 27844 98.6735 169.9388 0009062 198.4654 161.6197 14.24331486190695 RS-22 1 27939U 03042A 26161.63012659 .00000987 00000-0 16034-3 0 9998 2 27939 98.3475 345.8042 0010079 293.1331 155.0167 14.73456279214586 CO-65 1 32785U 08021C 26161.61958555 .00004983 00000-0 31564-3 0 9992 2 32785 97.8272 142.9015 0010327 58.2820 301.9414 15.09391098984202 CO-66 1 32791U 08021J 26161.47612768 .00016320 00000-0 52179-3 0 9999 2 32791 97.7516 159.0539 0002042 26.6798 333.4547 15.32520473986269 RS-30 1 32953U 08025A 26161.57974087 .00000047 00000-0 26933-3 0 9997 2 32953 82.5049 359.5514 0019142 328.8344 31.1600 12.43179004818877 SRMSAT 1 37841U 11058D 26161.52450462 .00000356 00000-0 49378-4 0 9991 2 37841 19.9713 99.7947 0011923 130.6142 29.5560 14.11574150756872 ZACUBE-1 1 39417U 13066B 26161.14175542 .00003283 00000-0 25692-3 0 9998 2 39417 97.8088 123.4403 0040113 272.4357 87.2274 15.01145439679670 Delfi-N3xt 1 39428U 13066N 26161.28420854 .00004099 00000-0 36085-3 0 9998 2 39428 97.8343 81.6026 0073030 229.0267 130.4621 14.95017787673592 GOMX-1 1 39430U 13066Q 26161.58084668 .00001546 00000-0 23679-3 0 9992 2 39430 97.6495 2.4607 0130161 98.5133 263.0849 14.69434465668942 LO-74 1 39440U 13066AA 26161.09650600 .00003464 00000-0 32201-3 0 9996 2 39440 97.8902 110.0449 0059088 51.9853 308.6680 14.93705686675937 AO-73 1 39444U 13066AE 26161.56002196 .00005080 00000-0 31754-3 0 9991 2 39444 97.8263 132.8674 0035008 223.9951 135.8490 15.09408570678661 DTUSAT-2 1 40030U 14033W 26161.50091822 .00005635 00000-0 30625-3 0 9999 2 40030 98.0861 158.8038 0006186 253.0774 106.9779 15.14932323651670 LILACSAT-2 1 40908U 15049K 26161.56399311 .00015995 00000-0 27470-3 0 9995 2 40908 97.4660 198.1544 0005285 277.2208 82.8443 15.51225787594724 Horyu-4 1 41340U 16012D 26161.10844880 .00337518 00000-0 10043-2 0 9998 2 41340 30.9844 130.8123 0003461 226.4757 133.5616 15.90526809569681 Lapan A3 1 41603U 16040E 26161.59885295 .00003054 00000-0 97798-4 0 9998 2 41603 97.1485 157.9611 0011596 47.2953 312.9264 15.33062590553804 CAS-2T 1 41847U 16066G 26161.52223122 .00001558 00000-0 22576-3 0 9992 2 41847 98.3822 237.3346 0342571 149.6411 212.5119 14.44672243503831 TechnoSat 1 42829U 17042E 26161.33432075 .00003016 00000-0 21642-3 0 9990 2 42829 97.4262 319.2540 0018783 115.9185 244.3980 15.04911814485672 AO-91 1 43017U 17073E 26161.59307599 .00007911 00000-0 34602-3 0 9992 2 43017 97.4719 28.9430 0150575 352.0804 7.8050 15.12608951464399 S-Net D 1 43186U 18014G 26161.46833202 .00004592 00000-0 23824-3 0 9992 2 43186 97.5371 66.3009 0009549 50.7592 309.4487 15.16609598457747 S-Net B 1 43187U 18014H 26161.28171504 .00005113 00000-0 26504-3 0 9991 2 43187 97.5375 66.1017 0010042 46.5219 313.6848 15.16577938457715 S-Net A 1 43188U 18014J 26161.46724519 .00004567 00000-0 23685-3 0 9991 2 43188 97.5386 66.4936 0009969 46.8834 313.3231 15.16617465457749 S-Net C 1 43189U 18014K 26161.48349659 .00004857 00000-0 25196-3 0 9993 2 43189 97.5403 66.5833 0011129 39.1939 321.0098 15.16570695456298 Ten-Koh 1 43677U 18084G 26161.59905754 .00002074 00000-0 15931-3 0 9993 2 43677 98.0782 353.6851 0010851 134.4130 225.7984 15.02916469415173 PO-101 1 43678U 18084H 26161.56771904 .00002230 00000-0 18240-3 0 9999 2 43678 98.1177 357.4891 0012150 191.7961 168.2978 15.00420507415222 QO-100 1 43700U 18090A 26161.55889796 .00000162 00000-0 00000-0 0 9994 2 43700 0.0124 297.5952 0001895 183.1386 5.2106 1.00273986 27611 MinXSS-2 1 43758U 18099A 26161.16917434 .00033763 00000-0 68142-3 0 9991 2 43758 97.4538 237.2505 0006224 284.9519 75.1041 15.46430741413046 AO-95 1 43770U 18099N 26160.73658427 .00010631 00000-0 40880-3 0 9999 2 43770 97.4390 221.0109 0008751 24.8412 335.3246 15.26553683412087 SNUSat 2 1 43782U 18099AA 26161.10034944 .00007677 00000-0 34153-3 0 9998 2 43782 97.4067 214.5930 0009028 327.4253 32.6425 15.21731800411958 SnugLite 1 43784U 18099AC 26161.39456429 .00010508 00000-0 39875-3 0 9990 2 43784 97.3877 215.7418 0001578 342.3411 17.7773 15.27029608412285 ITASat 1 1 43786U 18099AE 26161.63189712 .00006335 00000-0 30555-3 0 9996 2 43786 97.4034 213.2746 0012812 23.0700 337.1107 15.18974140411916 EAGLET 1 1 43790U 18099AJ 26161.63729630 .00003425 00000-0 19796-3 0 9991 2 43790 97.4234 211.4792 0011334 17.0077 343.1531 15.12889098411348 ESEO 1 43792U 18099AL 26161.52824782 .00001826 00000-0 13540-3 0 9999 2 43792 97.3965 199.2013 0012026 2.5047 357.6237 15.04220705410802 JO-97 1 43803U 18099AX 26161.44021640 .00015949 00000-0 49534-3 0 9998 2 43803 97.4136 224.2518 0004138 295.7294 64.3521 15.33439242412596 Suomi 100 1 43804U 18099AY 26161.13521593 .00010485 00000-0 38309-3 0 9995 2 43804 97.4189 221.5551 0008475 308.8959 51.1524 15.28255069412341 ISAT 1 43879U 18111D 26161.31933666 .00088054 00000-0 92419-3 0 9999 2 43879 97.5882 96.0179 0001565 50.1914 309.9482 15.64078892410090 UWE-4 1 43880U 18111E 26161.61287756 .00029581 00000-0 61235-3 0 9998 2 43880 97.5851 89.7026 0006745 9.3200 350.8173 15.45713387409765 Sparrow 1 43881U 18111F 26161.58084341 .00127478 00000-0 94314-3 0 9998 2 43881 97.6115 101.8022 0004575 103.3961 256.7812 15.72544134410331 Prox-1 1 44339U 19036A 26161.29575889 .00012056 00000-0 11774-2 0 9997 2 44339 23.9911 160.2814 0005287 313.9538 46.0524 14.90447065372447 Taurus 1 1 44530U 19059C 26161.64947920 .00005007 00000-0 80538-3 0 9996 2 44530 98.6412 326.0728 0007674 339.3901 20.6993 14.72028407357681 TO-108 1 44881U 19093C 26161.65002914 .00000680 00000-0 82771-4 0 9993 2 44881 97.7530 234.0414 0014980 106.0139 254.2728 14.86510030350442 RS-44 1 44909U 19096E 26161.59430669 .00000032 00000-0 80700-4 0 9993 2 44909 82.5217 344.0868 0217875 159.5378 201.4622 12.79748699301502 SALSAT 1 46495U 20068K 26161.53894844 .00006924 00000-0 24329-3 0 9999 2 46495 97.8853 164.1992 0008621 335.4923 24.5905 15.29703223314342 CSS (TIANHE-1) 1 48274U 21035A 26161.57786257 .00021572 00000-0 25703-3 0 9996 2 48274 41.4694 2.2172 0008327 24.2094 335.9134 15.60534794292139 CUTE 1 49263U 21088D 26161.52570826 .00150394 10456-4 47533-3 0 9991 2 49263 97.4173 260.1851 0007904 244.1162 115.9297 15.91259664261494 TeikyoSat 4 1 49396U 21102B 26161.55803390 .00002073 00000-0 13305-3 0 9993 2 49396 97.3672 191.2990 0010901 322.3746 37.6720 15.09486131251726 Z-Sat 1 49399U 21102E 26161.60720333 .00003327 00000-0 16548-3 0 9992 2 49399 97.3334 197.1298 0014699 270.5023 89.4527 15.18215610252442 KOSEN 1 1 49402U 21102H 26161.39110652 .00007043 00000-0 27001-3 0 9995 2 49402 97.3194 203.6805 0012525 225.8165 134.2046 15.26741290252985 HO-113 1 50466U 21131B 26161.59861319 .00000359 00000-0 12437-3 0 9994 2 50466 98.4971 254.0240 0005274 112.0154 248.1596 14.41351510234166 SNUGLITE 2 1 52899U 22065F 26161.33463593 .00000837 00000-0 16768-3 0 9999 2 52899 98.2194 306.1777 0008390 52.4579 307.7384 14.64335098209995 UmKA 1 (RS40S) 1 57172U 23091G 26161.57994596 .00005871 00000-0 26929-3 0 9999 2 57172 97.5057 220.3027 0013946 138.3432 221.8868 15.20740716163008 CubeBel-2 (EU11S) 1 57175U 23091K 26161.57428833 .00011117 00000-0 39673-3 0 9998 2 57175 97.5058 224.7326 0011140 134.7355 225.4793 15.28989731163298 RS-38S 1 57189U 23091Z 26161.56752604 .00014966 00000-0 43108-3 0 9991 2 57189 97.5097 230.9209 0008598 97.3628 262.8593 15.35812743163676 SONATE-2 1 59112U 24043Q 26161.33229084 .00039539 00000-0 52300-3 0 9990 2 59112 97.5521 311.3113 0006720 218.8804 141.1969 15.58207311126821 GRBBeta 1 60237U 24128C 26161.58313076 .00003187 00000-0 22462-3 0 9992 2 60237 61.9898 239.4357 0041546 133.2177 227.2398 15.06595991105276 Curium One 1 60242U 24128H 26161.55888519 .00006255 00000-0 36373-3 0 9999 2 60242 61.9783 229.2493 0040845 129.0735 231.4006 15.12427593105459 ROBUSTA-3A 1 60243U 24128J 26161.51999058 .00005875 00000-0 35005-3 0 9995 2 60243 61.9859 231.8200 0042079 126.8629 233.6336 15.11597596105413 CatSat 1 60246U 24125J 26161.58966991 .00047317 00000-0 62631-3 0 9994 2 60246 97.2101 14.0090 0022134 202.7897 157.2379 15.57876707106364 HYPERVIEW-1G (RS66S) 1 61772U 24199AP 26161.58203978 .00069962 00000-0 48810-3 0 9992 2 61772 97.2897 40.9753 0002264 260.7408 99.3601 15.74115316133634 AO-123 1 61781U 24199AY 26161.58363089 .00006947 00000-0 20268-3 0 9993 2 61781 97.3016 30.3144 0012968 339.9674 20.1060 15.35580188132912 JINJUSat 1B 1 63210U 25052A 26161.22872900 .00015323 00000-0 47824-3 0 9994 2 63210 97.4018 57.9751 0005387 105.8376 254.3461 15.33285473 69034 NUSHSAT 1 1 63211U 25052B 26161.60928317 .00018619 00000-0 53753-3 0 9990 2 63211 97.3989 58.8993 0005195 106.4104 253.7711 15.35711947 69136 TEVEL2-4 1 63213U 25052D 26160.68297184 .00017103 00000-0 51594-3 0 9998 2 63213 97.3918 57.0647 0004529 116.3023 243.8685 15.34347478 68960 TEVEL2-5 1 63214U 25052E 26161.22442351 .00017598 00000-0 53329-3 0 9994 2 63214 97.3913 57.5550 0004507 117.7852 242.3848 15.34197759 69045 TEVEL2-6 1 63215U 25052F 26161.62793760 .00015829 00000-0 48042-3 0 9993 2 63215 97.3920 57.9437 0004503 117.4748 242.6953 15.34172180 69107 TEVEL2-1 1 63217U 25052H 26161.45896437 .00016982 00000-0 52380-3 0 9992 2 63217 97.3892 57.4069 0004352 126.5292 233.6352 15.33643468 69069 TEVEL2-3 1 63218U 25052J 26161.45384750 .00014599 00000-0 45005-3 0 9991 2 63218 97.3880 57.4231 0004594 125.5277 234.6394 15.33693057 69064 TEVEL2-2 1 63219U 25052K 26161.26357561 .00017570 00000-0 54175-3 0 9991 2 63219 97.3890 57.2137 0004337 128.0186 232.1449 15.33646958 69030 TEVEL2-9 1 63237U 25052AD 26161.62407326 .00013811 00000-0 45314-3 0 9995 2 63237 97.3953 56.9633 0007199 149.0429 211.1238 15.31695500 69026 TEVEL2-7 1 63238U 25052AE 26161.59839001 .00014018 00000-0 46406-3 0 9994 2 63238 97.3954 56.8565 0007293 149.8573 210.3089 15.31404254 69012 TEVEL2-8 1 63239U 25052AF 26160.69177181 .00014112 00000-0 46777-3 0 9995 2 63239 97.3952 55.9294 0007170 153.0566 207.1049 15.31361975 68878 SPIRONE 1 66657U 25274H 26161.62229291 .00002430 00000-0 23579-3 0 9997 2 66657 97.7480 91.0073 0013255 42.6929 317.5319 14.93518969 29246 K-HERO 1 66660U 25274L 26161.56174435 .00002152 00000-0 20710-3 0 9998 2 66660 97.7488 91.1038 0015252 46.1078 314.1399 14.93938853 29242 SNUGLITE-III DURI 1 66661U 25274M 26161.28179422 .00001895 00000-0 18282-3 0 9993 2 66661 97.7488 90.8481 0015779 47.2551 312.9994 14.93977611 29201 SAKHACUBE-CHOLBON 1 67290U 25313AU 26161.46671774 .00008932 00000-0 36274-3 0 9993 2 67290 97.3935 236.5859 0009545 29.0173 331.1593 15.24770475 24952 RS95S (QMR-KWT-2) 1 67291U 25313AV 26161.46105327 .00012650 00000-0 49210-3 0 9996 2 67291 97.3933 236.7419 0008932 27.8239 332.3475 15.26119780 24964 Ten-Koh2 1 68261U 25241B 26160.80192219 .00005889 00000-0 25467-3 0 9991 2 68261 51.6684 354.7738 0006373 120.8887 239.2718 15.23816074 13783 JACK-002 1 68417U 26067B 26160.85103302 .00006398 00000-0 30626-3 0 9990 2 68417 97.4559 119.5327 0001038 19.8110 340.3165 15.19303687 10834 DISCO 2 1 68431U 26067R 26161.59524528 .00007017 00000-0 33875-3 0 9993 2 68431 97.4593 120.2563 0003436 54.9349 305.2207 15.18972665 10943 HADES-SA (SpinnyONE) 1 68446U 26067AG 26160.84355241 .00017672 00000-0 84999-3 0 9991 2 68446 97.4393 119.2504 0009868 101.1139 259.1205 15.18811421 10810 PARUS-6U1 1 68456U 26067AS 26161.33062022 .00004888 00000-0 24741-3 0 9993 2 68456 97.4544 119.7998 0007651 89.4453 270.7657 15.17444777 10899 SAL-E 1 68458U 26067AU 26161.32707985 .00006245 00000-0 31322-3 0 9990 2 68458 97.4466 119.7368 0008032 96.5675 263.6473 15.17658973 10896 FSI-SAT 2 1 68792U 26088A 26160.91453648 .00003818 00000-0 25998-3 0 9997 2 68792 97.5046 310.3575 0015575 129.6269 230.6336 15.06772756 7193 OrigamiSat 2 1 68795U 26088D 26160.66733383 .00003134 00000-0 20404-3 0 9997 2 68795 97.5062 310.2317 0016774 104.9380 255.3708 15.08562004 7168 ARICA 2 1 68796U 26088E 26161.46138896 .00003465 00000-0 22623-3 0 9997 2 68796 97.5050 311.0013 0017255 101.3009 259.0160 15.08373220 7288 WASEDA-SAT-ZERO-II 1 68797U 26088F 26161.65700614 .00004945 00000-0 31944-3 0 9992 2 68797 97.5046 311.1993 0017010 100.6721 259.6424 15.08566921 7319 MANGARO-II-Piscus 1 68798U 26088G 26161.31651488 .00003342 00000-0 21598-3 0 9994 2 68798 97.5054 310.8929 0020504 104.3871 255.9636 15.08732383 7268 IO-86 1 40931U 25360.30710720 .00000000 00000-0 12800-3 0 00 2 40931 6.0006 332.5373 0012733 338.8432 8.1437 14.79075515 01 LILIUM-4 1 71922C 26067AC 26089.50133053 -.00014632 00000 0 -74472-3 0 04 2 71922 97.4497 49.1617 0004341 5.9603 355.7042 15.16896692 16